Location: *
(43.9905°S, 176.4941°W)
Time: 05:22:31
(UTC+00:00)

Cosmos 1953 Rocket - Pass Details

Date: 08 December 2019
Orbit: 605 x 634 km, 82.5° (Epoch: 22 January)

Event Time Altitude Azimuth Distance (km) Brightness Sun altitude
Rises 10:35:51 0° 182° (S) 2,937 8.4 -21.8°
Reaches altitude 10° 10:38:14 10° 174° (S) 2,017 7.2 -21.9°
Maximum altitude 10:42:27 40° 104° (ESE) 931 4.4 -22.1°
Enters shadow 10:43:01 38° 84° (E) 961 4.3 -22.1°
